Tracking 31027 objects as of 19-Jul-2025
HD Live streaming from Space Station
objects crossing your sky now

FENGYUN 1C DEB

Track FENGYUN 1C DEB now!
10-day predictions


NORAD ID: 30338
Int'l Code: 1999-025AAZ
Perigee: 550.5 km
Apogee: 946.1 km
Inclination: 98.5 °
Period: 99.6 minutes
Semi major axis: 7119 km
RCS: 0.0507 m2 (small)
Launch date: May 10, 1999
Source: People's Republic of China (PRC)
Launch site: Taiyaun Space Center, China (TSC)

Note: This is SATELLITE DEBRIS
Your satellite tracking list
LANDSAT 5
Track 1 satellite(s)




NASA's NSSDC Master Catalog

Two Line Element Set (TLE):
1 30338U 99025AAZ 25199.14963102  .00002119  00000-0  38577-3 0  9990
2 30338  98.4746 268.8109 0277866 281.6473 148.1830 14.45257152960116
Source of the keplerian elements: AFSPC